This is the latest recevied weather packets stored in our database for station/object K9RJT. If no packets are shown the sender has not sent any weather packets the latest 10 day(s).
| Time | Temp. | Humidity | Pressure | Rain* | Wind** | Luminosity | Snow |
|---|---|---|---|---|---|---|---|
| 1777854973 | 27.22° C | 28% | 1005.7 hPa | 0 mm | - | 201 W/m² | - |
| 1777854669 | 27.22° C | 27% | 1005.9 hPa | 0 mm | - | 223 W/m² | - |
| 1777854366 | 27.22° C | 27% | 1005.6 hPa | 0 mm | - | 234 W/m² | - |
| 1777854064 | 27.22° C | 27% | 1006.1 hPa | 0 mm | - | 248 W/m² | - |
| 1777853761 | 26.67° C | 27% | 1005.9 hPa | 0 mm | - | 237 W/m² | - |
| 1777853457 | 27.78° C | 28% | 1006.2 hPa | 0 mm | - | 261 W/m² | - |
| 1777853154 | 27.22° C | 27% | 1006.2 hPa | 0 mm | - | 270 W/m² | - |
| 1777852852 | 27.22° C | 28% | 1006.1 hPa | 0 mm | - | 286 W/m² | - |
| 1777852550 | 26.67° C | 27% | 1006.2 hPa | 0 mm | - | 293 W/m² | - |
| 1777852247 | 26.67° C | 28% | 1006.4 hPa | 0 mm | - | 302 W/m² | - |
| 1777851945 | 27.22° C | 28% | 1006.2 hPa | 0 mm | - | 303 W/m² | - |
| 1777851643 | 27.22° C | 28% | 1006.2 hPa | 0 mm | - | 324 W/m² | - |
| 1777851338 | 26.67° C | 28% | 1006.3 hPa | 0 mm | - | 358 W/m² | - |
| 1777851035 | 26.11° C | 28% | 1006.6 hPa | 0 mm | - | 364 W/m² | - |
| 1777850732 | 26.11° C | 28% | 1006.7 hPa | 0 mm | - | 314 W/m² | - |
| 1777850429 | 26.67° C | 30% | 1006.5 hPa | 0 mm | - | 312 W/m² | - |
| 1777850127 | 26.67° C | 32% | 1006.7 hPa | 0 mm | - | 319 W/m² | - |
| 1777849824 | 25.56° C | 33% | 1006.9 hPa | 0 mm | - | 314 W/m² | - |
| 1777849520 | 25.56° C | 34% | 1006.8 hPa | 0 mm | - | 303 W/m² | - |
| 1777849218 | 25° C | 34% | 1006.9 hPa | 0 mm | - | 262 W/m² | - |
| 1777848915 | 25.56° C | 34% | 1007.4 hPa | 0 mm | - | 252 W/m² | - |
| 1777848610 | 25° C | 37% | 1007.2 hPa | 0 mm | - | 238 W/m² | - |
| 1777848308 | 24.44° C | 37% | 1007.5 hPa | 0 mm | - | 228 W/m² | - |
| 1777848005 | 24.44° C | 38% | 1007.4 hPa | 0 mm | - | 216 W/m² | - |
| 1777847703 | 24.44° C | 37% | 1007.4 hPa | 0 mm | - | 202 W/m² | - |
* Rain latest hour (hover to see other rain measurements)
** Current wind speed in m/s (hover to see current wind gust speed)